Air Force Academy, CO

12:03 PM MST on February 23, 2018 (GMT -0700)
Usaf Academy

Weather History for KAFF - April, 2013

Change the Weather History Date:

Monday, April 1, 2013

  Actual Average Record
Temperature  
Mean Temperature 38 °F -  
Max Temperature 50 °F 51 °F 78 °F (2012)
Min Temperature 26 °F 27 °F 12 °F (2005)
Degree Days  
Heating Degree Days 27    
Moisture  
Dew Point 24 °F    
Average Humidity 59    
Maximum Humidity 80    
Minimum Humidity 37    
Precipitation  
Precipitation 0.00 in - - ()
Sea Level Pressure  
Sea Level Pressure 30.06 in    
Wind  
Wind Speed 11 mph (SSE)    
Max Wind Speed 17 mph    
Max Gust Speed 25 mph    
Visibility 10 miles    
Events      
Averages and records for this station are not official NWS values.
T = Trace of Precipitation, MM = Missing Value Source: NWS Daily Summary

Daily Weather History Graph

Daily Weather History Graph

Search for Another Location

Airport or City:

Trip Planner

Search our weather history database for the weather conditions in past years. The results will help you decide how hot, cold, wet, or windy it might be!

Date:

Astronomy

Apr. 01, 2013 Rise Set
Actual Time 6:43 AM MDT 7:23 PM MDT
Civil Twilight 6:16 AM MDT 7:50 PM MDT
Nautical Twilight 5:44 AM MDT 8:21 PM MDT
Astronomical Twilight 5:12 AM MDT 8:54 PM MDT
Moon 12:31 AM MDT (4/1) 10:35 AM MDT (4/1)
Length of Visible Light 13h 33m
Length of Day
12h 39m
Waning Gibbous, 66% of the Moon is Illuminated
Apr 1
Waning Gibbous
Apr 2
Last Quarter
Apr 10
New
Apr 18
First Quarter
Apr 25
Full

Hourly Weather History & Observations

Time (MDT) Temp. Windchill Dew Point Humidity Pressure Visibility Wind Dir Wind Speed Gust Speed Precip Events Conditions
12:58 AM 41.2 °F 34.1 °F 20.3 °F 43% 30.00 in 10.0 mi North 12.7 mph - N/A   Clear
1:58 AM 39.6 °F 33.0 °F 21.0 °F 48% 30.01 in 10.0 mi North 10.4 mph - N/A   Clear
2:58 AM 33.1 °F 25.5 °F 21.7 °F 63% 30.03 in 10.0 mi North 9.2 mph - N/A   Clear
3:58 AM 30.7 °F 23.3 °F 21.9 °F 70% 30.03 in 10.0 mi North 8.1 mph - N/A   Clear
4:58 AM 29.1 °F 21.3 °F 21.7 °F 74% 30.02 in 10.0 mi North 8.1 mph - N/A   Clear
5:58 AM 29.8 °F 23.0 °F 21.7 °F 72% 30.05 in 10.0 mi NE 6.9 mph - N/A   Clear
6:58 AM 26.6 °F 21.2 °F 20.5 °F 78% 30.08 in 10.0 mi North 4.6 mph - N/A   Clear
7:58 AM 35.6 °F 27.5 °F 23.4 °F 61% 30.10 in 10.0 mi South 11.5 mph - N/A   Partly Cloudy
8:58 AM 37.4 °F 30.3 °F 24.8 °F 60% 30.10 in 10.0 mi SSE 10.4 mph - N/A   Scattered Clouds
9:58 AM 39.9 °F 32.5 °F 25.7 °F 57% 30.10 in 10.0 mi South 12.7 mph - N/A   Partly Cloudy
10:58 AM 38.8 °F 31.2 °F 25.7 °F 59% 30.10 in 10.0 mi SE 12.7 mph - N/A   Clear
11:58 AM 45.1 °F 38.8 °F 26.2 °F 48% 30.07 in 10.0 mi South 13.8 mph - N/A   Clear
12:53 PM 48.2 °F - 26.6 °F 43% 30.06 in 10.0 mi SE 16.1 mph 25.3 mph N/A   Clear
12:58 PM 48.6 °F - 26.4 °F 42% 29.99 in 10.0 mi SE 16.1 mph 25.3 mph N/A   Clear
1:07 PM 48.2 °F - 26.6 °F 43% 30.05 in 10.0 mi South 17.3 mph 21.9 mph N/A   Clear
1:58 PM 50.0 °F - 26.2 °F 40% 29.97 in 10.0 mi South 17.3 mph 25.3 mph N/A   Clear
2:46 PM 50.0 °F - 24.8 °F 37% 30.02 in 10.0 mi South 16.1 mph 21.9 mph N/A   Clear
2:58 PM 50.2 °F - 25.5 °F 38% 29.99 in 10.0 mi SSE 16.1 mph 20.7 mph N/A   Clear
3:58 PM 47.8 °F - 24.4 °F 40% 30.00 in 10.0 mi South 10.4 mph 17.3 mph N/A   Clear
4:58 PM 46.9 °F - 23.9 °F 40% 30.01 in 10.0 mi SSE 11.5 mph - N/A   Partly Cloudy
5:58 PM 45.5 °F 39.6 °F 23.9 °F 43% 30.02 in 10.0 mi South 12.7 mph - N/A   Clear
6:58 PM 41.4 °F 34.7 °F 25.2 °F 53% 30.09 in 10.0 mi SSE 11.5 mph - N/A   Partly Cloudy
7:58 PM 38.7 °F 30.1 °F 25.5 °F 59% 30.08 in 10.0 mi South 15.0 mph - N/A   Clear
8:58 PM 33.8 °F 25.3 °F 25.0 °F 70% 30.13 in 10.0 mi SSE 11.5 mph - N/A   Partly Cloudy
9:23 PM 32.0 °F 23.6 °F 24.8 °F 75% 30.12 in 10.0 mi SSE 10.4 mph - N/A   Mostly Cloudy
9:28 PM 32.0 °F 23.0 °F 24.8 °F 75% 30.12 in 10.0 mi SSE 11.5 mph - N/A   Mostly Cloudy
9:58 PM 32.5 °F 24.2 °F 25.5 °F 75% 30.15 in 10.0 mi SSE 10.4 mph - N/A   Overcast
10:58 PM 32.4 °F 25.3 °F 26.1 °F 78% 30.15 in 10.0 mi South 8.1 mph - N/A   Overcast
11:08 PM 32.0 °F 25.6 °F 26.6 °F 80% 30.11 in 10.0 mi SSE 6.9 mph - N/A   Overcast
11:28 PM 32.0 °F 27.5 °F 24.8 °F 75% 30.12 in 10.0 mi SSE 4.6 mph - N/A   Overcast
11:33 PM 32.0 °F 27.5 °F 24.8 °F 75% 30.12 in 10.0 mi SSE 4.6 mph - N/A   Overcast
11:58 PM 31.8 °F 27.3 °F 25.7 °F 78% 30.09 in 10.0 mi South 4.6 mph - N/A   Overcast